Address 0x3492ae87abdd13ff904cc3a3780f64b12796ff50 2

 

Overview

Balance:
0.041630787773434935 ETH

ETH Value:
$73.67 (@ $1,769.52/ETH)

Token:
Txn Hash Method
Block
From
To
Value [Txn Fee]
0x82ca5683f6bebc091bc8509ab70189ff7e209bf7d79bd72e25f592b783e88db9Multicall123005012022-05-17 9:27:379 days 15 hrs ago0x3492ae87abdd13ff904cc3a3780f64b12796ff50OUT Uniswap V3: Router 20 ETH0.000250772119 ETH
0xce57500c8886fd012272df09d09ae1cda7e661f1d60e8fdcae1e1f952418c6f6Withdraw Eth123004172022-05-17 9:26:019 days 15 hrs ago0x3492ae87abdd13ff904cc3a3780f64b12796ff50OUTArbitrum: ArbSys0.0001 ETH0.000119895261 ETH
0x40a141f3e347278cd69644dfdcc65dfb7c731582fbb4f525207bc2a853bab889Multicall121797562022-05-16 3:28:5410 days 21 hrs ago0x3492ae87abdd13ff904cc3a3780f64b12796ff50OUT Uniswap V3: Router 20.01 ETH0.000179519892 ETH
0xb87118f7f2f1c377565793e1e9c75a77aa52751e347c8a86bd0828878009bc12Multicall121790282022-05-16 3:19:3710 days 21 hrs ago0x3492ae87abdd13ff904cc3a3780f64b12796ff50OUT Uniswap V3: Positions NFT0.010060345443461 ETH0.000311418106 ETH
0x9b5b4eb271a44ce119f6d33b5cfc88fa5d78100b701ed759bd0e59079ed15fd1Approve121783582022-05-16 3:12:5910 days 21 hrs ago0x3492ae87abdd13ff904cc3a3780f64b12796ff50OUT 0xff970a61a04b1ca14834a43f5de4533ebddb5cc80 ETH0.000125310834 ETH
0xb8aeccce71a2309d4a4e0f42c1458bcd2ab031d3ecbf8e406b55509ded90e3e9Multicall121781902022-05-16 3:11:5410 days 21 hrs ago0x3492ae87abdd13ff904cc3a3780f64b12796ff50OUT Uniswap V3: Router 20.01 ETH0.00016326297 ETH
0xb73f623ff1ebccb31547593319dc0ec810673b9005f9db699f3545cf160a5c9dMulticall121779572022-05-16 3:09:5910 days 21 hrs ago0x3492ae87abdd13ff904cc3a3780f64b12796ff50OUT Uniswap V3: Router 20 ETH0.000185000338 ETH
0xa0c01c1c3a78c48f8f91780f6df43dd0eed3fc3a503c750dadd79f1b65159ae4Multicall121779102022-05-16 3:08:4610 days 21 hrs ago0x3492ae87abdd13ff904cc3a3780f64b12796ff50OUT Uniswap V3: Router 20.067 ETH0.000163868908 ETH
0xe97a9f3a3af2601a702070bd1cf492a9674dd17d4f0b7dd3fad3c13b0f633a5eMulticall121776842022-05-16 3:05:1710 days 21 hrs ago0x3492ae87abdd13ff904cc3a3780f64b12796ff50OUT Uniswap V3: Router 20 ETH0.000202365731 ETH
0x06e593148ea8566797dd56b8f770d7787be47f5ea1ab63dfd236555bccc7be65Multicall121775182022-05-16 3:00:1110 days 22 hrs ago0x3492ae87abdd13ff904cc3a3780f64b12796ff50OUT Uniswap V3: Router 20.068 ETH0.000162794027 ETH
0x1ff4dfe118a8d9a637040d156f139c3cf91ed647607bab338d595094e51c6cc3Multicall121771822022-05-16 2:54:3110 days 22 hrs ago0x3492ae87abdd13ff904cc3a3780f64b12796ff50OUT Uniswap V3: Router 20 ETH0.000184989141 ETH
0xe2fdd1f45a825fc1a75853ca8578545eb9f9c24e081dbebbd65e2c7d2fa89131Approve121770892022-05-16 2:51:5410 days 22 hrs ago0x3492ae87abdd13ff904cc3a3780f64b12796ff50OUT 0xff970a61a04b1ca14834a43f5de4533ebddb5cc80 ETH0.000125613803 ETH
0x1874ffc8e27d786b3555c47c16a1a69e3e516eb70bb7a35a9e31261f86bacf58Multicall121767132022-05-16 2:45:4510 days 22 hrs ago0x3492ae87abdd13ff904cc3a3780f64b12796ff50OUT Uniswap V3: Router 20.0685 ETH0.000175210926 ETH
0x66a8709d5c22de4a967d1b466e91a307b1384f22012673aeeb5f655f11dc2079Create Retryable...120874552022-05-14 23:44:5612 days 1 hr ago0x3492ae87abdd13ff904cc3a3780f64b12796ff50OUTArbitrum: ArbRetryableTx0.07 ETH0.000000043615 ETH
[ Download CSV Export 
Latest 21 internal transactions
Parent Txn Hash Block From To Value
0x82ca5683f6bebc091bc8509ab70189ff7e209bf7d79bd72e25f592b783e88db9123005012022-05-17 9:27:379 days 15 hrs ago Uniswap V3: Router 20x3492ae87abdd13ff904cc3a3780f64b12796ff500.004797771582776067 ETH
0x82ca5683f6bebc091bc8509ab70189ff7e209bf7d79bd72e25f592b783e88db9123005012022-05-17 9:27:379 days 15 hrs ago 0x3492ae87abdd13ff904cc3a3780f64b12796ff50 Uniswap V3: Router 20 ETH
0x82ca5683f6bebc091bc8509ab70189ff7e209bf7d79bd72e25f592b783e88db9123005012022-05-17 9:27:379 days 15 hrs ago 0x3492ae87abdd13ff904cc3a3780f64b12796ff50 Uniswap V3: Router 20 ETH
0x40a141f3e347278cd69644dfdcc65dfb7c731582fbb4f525207bc2a853bab889121797562022-05-16 3:28:5410 days 21 hrs ago 0x3492ae87abdd13ff904cc3a3780f64b12796ff50 Uniswap V3: Router 20.01 ETH
0xb87118f7f2f1c377565793e1e9c75a77aa52751e347c8a86bd0828878009bc12121790282022-05-16 3:19:3710 days 21 hrs ago 0x3492ae87abdd13ff904cc3a3780f64b12796ff50 Uniswap V3: Positions NFT0.010060345443461427 ETH
0xb87118f7f2f1c377565793e1e9c75a77aa52751e347c8a86bd0828878009bc12121790282022-05-16 3:19:3710 days 21 hrs ago 0x3492ae87abdd13ff904cc3a3780f64b12796ff50 Uniswap V3: Positions NFT0.010060345443461427 ETH
0x9b5b4eb271a44ce119f6d33b5cfc88fa5d78100b701ed759bd0e59079ed15fd1121783582022-05-16 3:12:5910 days 21 hrs ago 0x3492ae87abdd13ff904cc3a3780f64b12796ff50 0x1efb3f88bc88f03fd1804a5c53b7141bbef5ded80 ETH
0xb8aeccce71a2309d4a4e0f42c1458bcd2ab031d3ecbf8e406b55509ded90e3e9121781902022-05-16 3:11:5410 days 21 hrs ago 0x3492ae87abdd13ff904cc3a3780f64b12796ff50 Uniswap V3: Router 20.01 ETH
0xb73f623ff1ebccb31547593319dc0ec810673b9005f9db699f3545cf160a5c9d121779572022-05-16 3:09:5910 days 21 hrs ago Uniswap V3: Router 20x3492ae87abdd13ff904cc3a3780f64b12796ff500.066961912782696974 ETH
0xb73f623ff1ebccb31547593319dc0ec810673b9005f9db699f3545cf160a5c9d121779572022-05-16 3:09:5910 days 21 hrs ago 0x3492ae87abdd13ff904cc3a3780f64b12796ff50 Uniswap V3: Router 20 ETH
0xb73f623ff1ebccb31547593319dc0ec810673b9005f9db699f3545cf160a5c9d121779572022-05-16 3:09:5910 days 21 hrs ago 0x3492ae87abdd13ff904cc3a3780f64b12796ff50 Uniswap V3: Router 20 ETH
0xa0c01c1c3a78c48f8f91780f6df43dd0eed3fc3a503c750dadd79f1b65159ae4121779102022-05-16 3:08:4610 days 21 hrs ago 0x3492ae87abdd13ff904cc3a3780f64b12796ff50 Uniswap V3: Router 20.067 ETH
0xe97a9f3a3af2601a702070bd1cf492a9674dd17d4f0b7dd3fad3c13b0f633a5e121776842022-05-16 3:05:1710 days 21 hrs ago Uniswap V3: Router 20x3492ae87abdd13ff904cc3a3780f64b12796ff500.067676788192289811 ETH
0xe97a9f3a3af2601a702070bd1cf492a9674dd17d4f0b7dd3fad3c13b0f633a5e121776842022-05-16 3:05:1710 days 21 hrs ago 0x3492ae87abdd13ff904cc3a3780f64b12796ff50 Uniswap V3: Router 20 ETH
0xe97a9f3a3af2601a702070bd1cf492a9674dd17d4f0b7dd3fad3c13b0f633a5e121776842022-05-16 3:05:1710 days 21 hrs ago 0x3492ae87abdd13ff904cc3a3780f64b12796ff50 Uniswap V3: Router 20 ETH
0x06e593148ea8566797dd56b8f770d7787be47f5ea1ab63dfd236555bccc7be65121775182022-05-16 3:00:1110 days 22 hrs ago 0x3492ae87abdd13ff904cc3a3780f64b12796ff50 Uniswap V3: Router 20.068 ETH
0x1ff4dfe118a8d9a637040d156f139c3cf91ed647607bab338d595094e51c6cc3121771822022-05-16 2:54:3110 days 22 hrs ago Uniswap V3: Router 20x3492ae87abdd13ff904cc3a3780f64b12796ff500.068204726336780269 ETH
0x1ff4dfe118a8d9a637040d156f139c3cf91ed647607bab338d595094e51c6cc3121771822022-05-16 2:54:3110 days 22 hrs ago 0x3492ae87abdd13ff904cc3a3780f64b12796ff50 Uniswap V3: Router 20 ETH
0x1ff4dfe118a8d9a637040d156f139c3cf91ed647607bab338d595094e51c6cc3121771822022-05-16 2:54:3110 days 22 hrs ago 0x3492ae87abdd13ff904cc3a3780f64b12796ff50 Uniswap V3: Router 20 ETH
0xe2fdd1f45a825fc1a75853ca8578545eb9f9c24e081dbebbd65e2c7d2fa89131121770892022-05-16 2:51:5410 days 22 hrs ago 0x3492ae87abdd13ff904cc3a3780f64b12796ff50 0x1efb3f88bc88f03fd1804a5c53b7141bbef5ded80 ETH
0x1874ffc8e27d786b3555c47c16a1a69e3e516eb70bb7a35a9e31261f86bacf58121767132022-05-16 2:45:4510 days 22 hrs ago 0x3492ae87abdd13ff904cc3a3780f64b12796ff50 Uniswap V3: Router 20.0685 ETH
[ Download CSV Export 
Loading

Contract Name:
0 ETH

Compiler Version
0

Optimization Enabled:
0 ETH

Other Settings:
-NA-
Block Transaction Gas Used Reward
Age Block Fee Address BC Fee Address Voting Power Jailed Incoming
Block Uncle Number Difficulty Gas Used Reward
Loading
Loading
Make sure to use the "Vote Down" button for any spammy posts, and the "Vote Up" for interesting conversations.